GW1652 Weather Reports


time (UTC)temp
C
wind
direction
speed
KPH
gust
KPH
rain 1hr
cm
rain 24hr
cm
rain mn
cm
humidity
%
barometer
mb
20260505224547 15 137 4.8 11.3 0.00 0.03 0.00 77 1017.1
20260505223103 15 206 6.4 12.9 0.00 0.03 0.00 79 1017.2
20260505221543 15 207 4.8 11.3 0.00 0.03 0.00 79 1017.3
20260505220048 15 227 4.8 14.5 0.00 0.03 0.00 78 1017.3
20260505214558 15 236 8.0 16.1 0.00 0.10 0.03 79 1017.3
20260505213054 15 189 3.2 14.5 0.00 0.10 0.03 78 1017.5
20260505211601 15 210 4.8 11.3 0.00 0.10 0.03 77 1017.2
20260505210051 15 195 1.6 12.9 0.00 0.10 0.03 78 1017.0
20260505204555 15 222 6.4 16.1 0.00 0.25 0.03 77 1017.0
20260505203105 15 167 8.0 16.1 0.00 0.25 0.03 77 1017.0
20260505201545 15 127 8.0 19.3 0.00 0.25 0.03 76 1017.1
20260505200049 15 224 6.4 17.7 0.00 0.25 0.03 76 1017.1
20260505194548 15 219 9.7 17.7 0.00 0.25 0.03 76 1017.1
20260505193044 15 203 8.0 14.5 0.00 0.25 0.03 76 1017.1
20260505191555 15 184 8.0 19.3 0.00 0.25 0.03 76 1017.2
20260505190042 15 187 11.3 20.9 0.00 0.25 0.03 75 1017.1
20260505184549 15 143 8.0 20.9 0.00 0.25 0.03 76 1016.8
20260505183048 15 211 9.7 25.7 0.00 0.25 0.03 75 1016.6
20260505181545 15 224 8.0 25.7 0.00 0.25 0.03 75 1016.4
20260505180048 15 196 8.0 17.7 0.00 0.25 0.03 76 1016.1
20260505174543 15 243 9.7 24.1 0.00 0.25 0.03 75 1016.1
20260505173044 15 185 8.0 14.5 0.00 0.25 0.03 75 1016.0
20260505171539 15 219 6.4 16.1 0.00 0.25 0.03 75 1015.9
20260505170045 15 201 4.8 9.7 0.00 0.25 0.03 75 1015.8
20260505164547 15 193 4.8 9.7 0.00 0.25 0.03 75 1015.7
20260505163042 15 159 4.8 9.7 0.00 0.25 0.03 75 1015.5
20260505161545 15 165 1.6 8.0 0.00 0.25 0.03 72 1015.3
20260505153051 16 213 4.8 12.9 0.00 0.25 0.03 65 1014.8
20260505151549 16 218 4.8 12.9 0.00 0.25 0.03 63 1014.7
20260505124550 18 158 0.0 19.3 0.00 0.25 0.03 58 1013.9
20260505123046 18 310 6.4 14.5 0.00 0.25 0.03 63 1014.1
20260505121548 18 1 8.0 14.5 0.00 0.25 0.03 66 1014.1
20260505120042 18 278 8.0 16.1 0.00 0.25 0.03 61 1014.1
20260505114551 18 4 6.4 17.7 0.00 0.25 0.03 61 1014.1
20260505113054 18 326 8.0 16.1 0.00 0.25 0.03 66 1014.4
20260505111548 17 359 6.4 12.9 0.00 0.25 0.03 67 1014.6
20260505101544 16 321 6.4 11.3 0.00 0.25 0.03 70 1015.2
20260505100039 16 30 6.4 11.3 0.00 0.25 0.03 71 1015.2
20260505094552 16 342 3.2 11.3 0.00 0.25 0.03 74 1015.3
20260505093051 16 315 4.8 9.7 0.00 0.25 0.03 76 1015.3
20260505091542 16 18 6.4 14.5 0.00 0.25 0.03 77 1015.3
20260505090056 16 353 4.8 11.3 0.00 0.25 0.03 78 1015.3
20260505084547 15 312 4.8 11.3 0.00 0.25 0.03 78 1015.3
20260505083101 15 328 6.4 12.9 0.00 0.25 0.03 79 1015.3
20260505081542 15 307 6.4 11.3 0.00 0.25 0.03 82 1015.3
20260505080047 14 298 4.8 11.3 0.00 0.25 0.03 83 1015.2
20260505074548 14 339 6.4 11.3 0.00 0.28 0.03 83 1015.1
20260505073044 14 297 3.2 11.3 0.00 0.28 0.03 83 1015.1
20260505071549 13 314 4.8 9.7 0.00 0.28 0.03 83 1015.0
20260505064548 13 286 6.4 9.7 0.00 0.53 0.03 85 1014.6
20260505063048 12 302 1.6 9.7 0.00 0.53 0.03 86 1014.5
20260505061610 12 300 4.8 11.3 0.00 0.53 0.03 88 1014.2
20260505060056 12 311 1.6 6.4 0.00 0.53 0.03 88 1013.9
20260505054554 12 310 0.0 8.0 0.00 0.56 0.03 89 1014.1
20260505053043 12 302 1.6 9.7 0.00 0.56 0.03 89 1014.1
20260505051550 12 302 3.2 9.7 0.00 0.56 0.03 89 1013.9
20260505041546 12 307 4.8 8.0 0.00 0.66 0.03 91 1013.4
20260505040057 12 310 3.2 6.4 0.00 0.66 0.03 92 1013.3
20260505034547 12 308 3.2 8.0 0.00 0.86 0.03 94 1013.2
20260505033054 12 301 3.2 6.4 0.00 0.86 0.03 94 1013.2
20260505031551 12 288 3.2 6.4 0.00 0.86 0.03 94 1013.1
20260505030044 11 279 0.0 3.2 0.00 0.86 0.03 94 1013.1
20260505024540 11 312 1.6 4.8 0.00 1.07 0.03 94 1013.1
20260505023041 12 297 1.6 4.8 0.00 1.07 0.03 94 1013.1
20260505021538 12 290 1.6 4.8 0.00 1.07 0.03 94 1013.1
20260505020046 12 288 0.0 6.4 0.00 1.07 0.03 94 1012.9
20260505014545 12 276 3.2 9.7 0.00 3.10 0.03 94 1013.0
20260505013050 12 316 1.6 4.8 0.00 3.10 0.03 94 1013.0
20260505011545 12 302 3.2 9.7 0.00 3.10 0.03 94 1013.3
20260505010058 12 294 3.2 8.0 0.00 3.10 0.03 93 1013.4
20260505004548 12 301 1.6 6.4 0.00 3.10 0.03 93 1013.5
20260505003048 12 306 3.2 8.0 0.00 3.10 0.03 93 1013.5
20260505001547 12 303 4.8 6.4 0.00 3.10 0.03 93 1013.6
20260505000054 12 0 1.6 4.8 0.00 3.10 0.03 93 1013.7
20260504234541 12 0 1.6 6.4 0.00 3.10 0.03 93 1013.8
20260504233048 11 285 0.0 3.2 0.00 3.10 0.03 93 1013.7
20260504231542 11 310 0.0 1.6 0.00 3.10 0.03 93 1013.7
20260504230048 11 305 3.2 6.4 0.03 3.10 0.03 93 1013.8